Wind_Speed
52 50 47 45 44 42 40 38 35 32 31 31 31 29 32 31 28 27 25 24 23 24 24 23 23 23 22 23 22 24 20 19 17 15 11 9 8 9 14 15 11 11 8 9 9 10 10 12 10 8 13 21 25 32
40 43 42 41 40 37 35 35 36 35 35 33 32 31 34 34 32 29 27 26 26 26 22 21 22 22 22 20 19 20 21 19 11 12 10 9 11 13 15 11 13 17 19 14 12 7 17 22 29 33 34 30 30 34
40 42 40 39 40 39 42 38 39 40 38 35 35 38 37 34 33 32 29 27 27 28 28 29 29 30 30 29 28 25 23 21 23 23 25 25 24 16 14 16 18 19 21 30 30 26 21 21 30 34 43 43 45 42
44 42 39 38 34 33 30 33 36 34 29 32 30 30 33 35 34 32 30 30 29 30 30 30 28 27 21 20 21 19 18 19 23 24 26 29 29 26 27 26 25 19 25 32 32 29 29 28 25 31 34 37 39 41
48 46 42 38 33 31 32 30 29 29 26 26 26 27 27 28 29 29 30 30 28 26 23 23 21 20 13 12 19 24 25 24 27 30 33 34 33 32 40 40 41 31 35 33 37 24 30 31 35 42 38 41 41 42
38 43 47 43 37 36 36 36 34 32 28 26 24 24 23 24 25 22 27 26 28 25 26 32 32 29 24 24 23 20 24 27 30 34 35 34 30 26 23 32 25 31 26 30 33 33 35 35 40 41 41 40 36 36
22 27 28 27 32 33 32 30 29 29 28 28 27 26 25 24 24 27 28 28 29 23 26 27 28 25 24 15 13 16 15 23 28 33 35 34 33 30 37 41 39 42 39 31 31 37 35 38 29 32 34 29 27 25
14 17 19 20 21 20 20 21 21 21 22 22 21 22 25 25 29 30 24 25 26 29 27 17 16 14 18 20 20 23 26 28 32 34 34 34 35 36 41 45 37 34 37 37 32 30 30 32 27 17 18 20 22 20
5 5 8 11 11 10 11 12 15 17 19 20 20 19 18 22 24 28 26 29 26 21 23 26 24 21 20 22 22 21 24 27 30 33 36 35 37 28 37 35 35 33 31 30 31 30 20 17 16 16 19 22 25 26
11 11 11 10 8 10 12 12 12 15 16 17 18 21 26 29 29 29 26 28 30 29 26 30 26 27 28 27 20 17 16 15 18 22 22 29 40 33 29 29 29 32 30 30 22 15 14 14 17 22 25 29 32 35
16 19 20 20 18 14 12 11 12 13 14 15 16 18 18 17 20 24 21 17 17 20 29 35 35 34 32 29 23 15 10 7 8 12 14 10 26 20 18 22 23 21 20 18 15 12 16 21 25 29 32 36 38 40
24 24 23 21 20 19 15 12 13 12 12 12 12 13 13 13 11 10 11 11 11 11 13 14 13 13 13 14 12 8 11 7 8 11 7 9 26 13 16 16 14 15 16 15 16 15 20 28 33 36 37 40 43 44
20 22 23 23 21 18 15 16 13 10 8 9 11 12 7 10 12 9 11 10 10 10 8 9 8 8 8 8 7 8 7 9 9 7 8 22 15 13 13 15 16 17 17 19 23 26 30 39 42 43 44 46 48 47
13 16 17 20 22 19 22 21 17 13 13 10 8 9 9 7 8 15 15 10 12 9 7 6 8 7 8 6 8 6 8 7 6 9 24 26 8 10 14 18 19 21 24 26 31 35 40 48 50 50 48 51 48 47
12 12 15 16 18 24 23 23 19 17 18 16 8 8 13 13 9 8 9 10 8 8 9 10 12 12 10 9 7 8 6 8 9 19 19 8 10 16 18 15 17 22 29 36 42 46 50 52 53 54 52 47 46 49
15 14 13 14 16 20 26 25 19 22 23 23 14 12 9 11 13 10 8 8 9 11 13 13 10 7 10 8 11 11 11 22 24 20 13 15 19 21 23 28 33 38 42 45 48 51 53 53 50 48 48 47 46 40
15 14 13 14 15 17 18 26 27 30 27 33 30 25 18 11 13 10 12 11 10 13 14 12 9 9 8 11 20 21 30 25 23 21 20 24 30 31 33 36 40 43 46 48 51 50 50 50 49 47 46 41 38 38
16 12 14 15 15 15 15 18 23 15 24 18 29 29 24 20 17 12 16 14 15 15 13 14 15 18 15 19 27 27 22 21 22 22 25 31 34 36 39 42 44 47 49 48 46 43 40 38 37 38 39 40 41 41
12 13 14 15 14 13 13 14 16 20 8 13 24 19 20 21 20 18 18 19 17 16 18 20 14 21 26 24 23 23 24 25 27 29 32 35 38 41 44 46 41 35 33 33 35 36 38 38 39 41 42 43 44 44
15 14 15 15 13 13 13 13 12 12 20 18 14 22 25 20 17 18 19 21 20 21 25 29 31 28 27 24 21 21 24 27 33 38 39 40 42 45 40 35 35 35 34 36 36 36 38 41 41 41 41 42 43 42
17 16 17 15 13 13 13 11 11 8 11 21 19 12 18 21 20 20 21 22 26 32 34 28 25 22 21 22 24 27 31 34 36 36 40 42 35 33 35 36 38 38 38 37 38 41 42 43 44 44 44 43 41 41
17 17 15 13 13 15 17 18 16 15 14 18 19 13 12 18 20 21 21 25 31 35 32 26 24 22 24 27 29 32 34 34 35 31 28 32 35 37 38 37 38 35 35 37 42 45 46 44 43 44 45 45 44 44
19 19 16 14 20 17 16 18 19 19 18 15 22 21 17 15 20 19 25 28 31 27 23 24 22 25 29 29 28 27 23 21 25 29 32 34 35 38 39 36 33 36 40 43 44 46 47 46 46 44 42 40 38 37
20 21 21 19 20 13 19 16 18 20 22 23 19 16 18 14 16 20 28 30 25 22 20 20 24 23 20 19 19 19 20 27 31 32 35 38 40 38 35 34 35 40 44 46 45 47 47 45 41 38 36 35 34 35
32 22 23 28 24 20 22 23 21 20 21 17 19 17 16 16 18 23 28 30 16 15 18 17 14 16 19 22 24 24 26 29 33 34 35 38 36 32 33 37 40 41 43 45 47 44 40 37 35 34 32 32 32 31
14 13 23 22 21 23 23 23 23 20 15 15 13 18 18 22 25 21 20 15 14 14 12 12 16 21 25 28 29 28 30 31 32 32 27 27 31 36 40 42 43 42 43 41 38 36 35 33 31 30 29 27 24 22
12 11 22 29 21 21 21 21 18 15 13 15 15 18 20 16 14 14 15 13 14 15 16 18 23 28 30 30 28 32 33 29 25 25 26 31 34 38 42 43 44 41 36 35 36 35 32 29 29 27 24 21 19 19
13 18 13 9 16 19 14 13 14 13 13 15 17 18 11 10 12 15 18 20 20 19 22 27 31 33 33 28 30 29 23 23 25 28 31 31 33 36 36 37 34 31 32 33 30 28 27 26 25 22 19 17 15 14
10 12 15 16 12 14 18 17 12 12 13 13 13 13 16 17 17 19 20 22 25 29 32 35 35 31 26 27 25 22 24 28 31 32 31 31 31 29 31 27 26 28 28 25 21 22 22 21 19 17 15 13 12 10
5 3 10 13 11 15 15 10 10 12 12 13 13 15 17 21 24 26 28 29 29 29 29 26 22 22 21 18 16 19 24 28 30 32 34 31 29 28 24 22 23 23 21 20 18 17 17 16 16 15 14 13 12 11
15 11 8 6 6 8 14 15 12 12 11 10 13 17 20 23 23 22 22 22 22 21 19 16 14 15 16 18 22 22 22 24 26 28 29 27 26 24 20 20 19 18 18 18 17 17 16 15 14 13 12 11 10 10
7 6 6 6 5 6 7 9 8 8 13 16 18 20 20 15 14 18 18 16 13 11 11 12 15 17 20 21 23 26 27 27 28 26 24 23 21 18 16 17 17 16 17 16 16 15 15 14 13 12 11 10 10 10
3 4 5 8 7 6 7 7 9 15 17 17 15 11 9 14 15 11 10 12 13 13 14 15 17 19 22 25 25 26 26 26 26 25 23 22 20 17 15 15 16 15 15 14 14 14 14 13 12 11 11 10 10 10
Wind_Direction
234 233 235 235 235 236 238 241 241 244 248 251 253 258 262 263 260 258 256 255 253 251 249 252 257 261 264 264 265 269 275 273 272 265 259 253 239 243 252 246 258 249 244 242 224 232 271 265 278 261 263 286 282 289
225 226 225 225 227 230 234 236 240 241 245 247 250 255 257 257 259 260 258 253 249 248 252 255 256 260 261 257 254 255 256 263 259 264 252 246 256 258 262 268 262 259 242 252 235 258 268 285 287 292 292 289 287 290
224 221 221 225 231 241 242 245 247 247 248 248 249 248 251 256 255 255 255 252 252 252 256 258 259 261 261 263 262 264 263 263 263 260 263 265 259 262 257 264 264 261 263 258 264 273 274 276 283 287 283 285 292 293
222 224 229 229 230 236 238 235 241 246 253 253 247 248 246 247 249 251 250 249 250 256 261 262 261 265 263 244 259 271 271 264 265 260 263 266 263 272 266 260 260 256 261 274 276 275 283 282 279 270 287 290 290 289
221 224 226 231 241 240 241 243 239 240 250 248 246 240 236 239 241 244 246 247 249 248 262 266 260 273 277 252 243 272 279 272 266 268 269 271 272 275 276 279 273 269 284 277 280 282 274 280 278 286 291 288 290 290
215 220 224 227 237 237 236 236 238 243 245 247 245 237 233 233 233 234 245 248 247 250 259 262 268 269 270 263 273 266 265 266 266 271 273 271 271 268 269 276 281 292 289 292 270 272 280 281 286 290 288 290 291 295
201 207 210 217 227 229 230 231 232 235 239 242 241 235 237 236 241 234 232 247 252 244 250 258 275 279 272 276 275 254 254 268 271 271 270 269 271 275 267 266 274 284 284 273 270 286 276 282 290 292 292 292 295 298
205 206 203 203 204 209 214 219 226 232 234 235 232 230 226 219 216 231 244 237 258 259 246 256 247 248 276 272 258 260 265 270 270 268 263 265 272 266 268 283 287 275 277 279 278 280 283 288 290 290 296 300 300 303
163 182 207 211 216 215 224 222 224 227 232 233 229 215 215 211 222 227 235 242 250 233 230 243 253 272 273 267 261 261 264 262 264 261 264 268 270 258 276 278 280 282 277 273 277 285 280 278 299 311 308 319 321 320
217 251 256 251 243 231 225 227 231 234 230 231 227 221 220 220 225 233 243 249 249 239 238 245 256 260 267 266 271 267 263 245 256 267 265 259 262 280 295 288 276 270 272 276 277 264 284 303 311 315 320 320 319 317
249 250 253 248 243 240 233 232 228 229 229 226 227 228 230 229 227 230 233 240 242 246 257 261 263 261 261 261 261 259 253 248 249 259 246 255 276 313 281 268 267 275 267 248 248 279 304 308 311 314 315 314 310 306
240 240 245 238 233 229 233 239 242 238 234 230 226 222 221 214 211 209 215 217 226 229 235 242 250 246 252 250 245 245 243 240 242 247 238 253 308 304 286 288 276 262 242 243 265 290 304 313 311 307 306 306 305 303
233 231 229 232 231 222 216 224 230 230 221 210 204 200 200 212 213 211 214 209 204 213 223 223 228 241 252 237 223 227 230 235 250 238 248 288 319 313 304 274 251 241 253 275 281 291 303 307 301 302 302 304 306 300
227 224 223 220 215 207 208 211 220 219 213 212 207 210 209 212 218 223 225 226 222 219 207 236 260 267 257 239 231 237 234 237 241 245 268 297 298 306 301 260 255 260 265 274 288 293 292 293 295 298 300 304 301 300
227 222 217 215 213 207 208 212 217 219 220 216 206 219 224 221 210 195 199 209 220 240 253 267 273 272 258 229 229 226 233 230 229 256 290 279 290 301 310 292 280 287 286 285 285 285 290 294 298 300 301 299 300 299
225 227 222 217 213 212 213 211 218 228 231 223 218 226 241 223 203 189 204 238 264 272 277 277 270 254 238 223 230 230 240 256 269 286 284 294 314 313 302 293 283 279 281 285 289 291 293 296 298 298 297 298 298 297
221 218 215 215 216 215 218 215 215 232 220 220 228 233 233 216 185 213 236 244 263 276 279 271 245 227 229 229 239 241 262 295 296 299 297 298 298 293 287 284 285 289 291 293 295 297 298 298 298 297 296 297 294 292
215 207 213 218 220 220 221 222 227 237 232 221 225 228 229 223 213 237 241 253 270 274 273 267 265 244 238 257 267 291 296 298 299 297 285 283 286 290 295 298 299 298 297 298 299 299 300 302 299 297 295 295 292 290
204 199 207 219 224 230 232 237 233 229 238 243 221 230 229 226 230 241 246 250 262 264 266 271 260 264 277 294 306 305 301 299 294 289 285 289 297 300 300 300 300 303 305 305 304 302 301 300 300 300 300 298 296 297
202 203 212 223 229 230 236 244 249 245 245 251 265 241 237 234 227 242 260 258 259 263 266 265 273 288 303 307 302 293 292 292 288 288 292 296 298 302 301 301 302 302 303 307 307 307 308 307 308 307 304 303 302 301
203 206 213 219 227 233 235 241 244 259 243 235 259 271 234 231 238 252 257 254 259 265 269 276 294 302 300 293 287 289 290 290 292 292 296 300 300 300 302 305 305 304 305 305 306 308 308 308 308 306 304 302 301 298
206 211 216 228 241 239 243 243 243 251 254 237 246 270 269 235 239 250 245 254 266 271 273 286 295 296 294 291 292 292 291 289 294 297 295 295 303 306 306 308 306 305 304 307 309 308 309 310 308 306 303 301 298 296
210 217 225 238 238 239 241 242 241 244 244 252 245 256 264 253 233 242 256 263 274 286 291 287 290 285 287 294 292 292 291 287 286 291 299 305 310 310 309 309 306 305 306 308 308 309 310 310 309 307 304 302 301 299
218 224 226 232 223 223 229 236 239 239 240 239 242 239 253 277 269 260 263 273 293 302 292 280 278 288 290 290 293 293 291 292 296 303 304 308 307 308 307 308 308 308 310 310 311 311 311 311 310 309 307 306 306 305
207 205 217 228 232 234 244 251 258 253 248 255 243 236 249 268 277 273 282 296 307 287 282 284 274 283 293 296 298 299 301 302 301 303 306 304 305 307 308 308 310 312 312 313 312 312 313 312 312 311 310 309 307 305
192 191 207 224 235 239 248 253 252 256 255 239 239 233 254 271 271 270 283 303 286 293 293 280 285 300 308 309 305 307 307 305 303 304 306 307 312 313 315 315 316 317 316 314 314 315 317 317 318 319 319 318 316 315
196 207 212 222 239 252 245 245 251 265 243 228 238 250 260 257 262 272 287 279 280 290 283 276 288 299 305 307 303 310 310 309 309 311 313 315 316 319 318 317 316 317 319 321 321 320 320 321 323 324 324 324 322 318
205 219 234 230 231 233 243 262 249 249 251 244 247 248 247 256 269 284 286 287 288 284 281 287 293 300 305 301 306 308 306 307 308 310 314 316 316 316 313 315 319 322 323 323 322 324 325 326 327 327 328 328 326 323
214 218 229 243 251 226 230 237 235 232 241 251 255 267 274 277 278 279 283 283 283 285 289 293 296 299 298 304 301 301 307 311 313 313 313 317 319 319 321 324 327 330 331 331 331 330 334 337 339 343 348 353 356 5
292 259 241 247 243 219 214 230 254 253 256 266 275 282 285 285 285 286 288 291 292 293 294 295 295 296 295 289 292 298 303 308 312 315 317 324 326 326 330 333 338 342 348 353 355 357 359 3 9 16 23 33 43 51
250 276 275 253 261 239 233 235 259 260 264 275 289 296 295 295 294 298 301 301 302 305 304 302 298 291 288 292 296 299 306 309 313 318 319 321 326 332 335 339 342 347 354 359 3 6 10 15 20 25 31 34 36 32
219 229 226 244 239 238 241 249 253 275 288 291 295 297 294 293 301 307 307 310 317 315 315 310 301 294 294 299 304 308 311 313 316 320 322 327 331 333 339 342 346 351 355 359 4 9 12 12 13 14 14 12 8 3
185 214 237 252 241 215 220 262 295 313 306 297 292 285 282 304 312 315 322 320 317 315 311 307 303 301 300 302 305 308 311 314 319 322 329 331 331 335 339 343 347 350 351 352 355 358 359 0 1 1 1 2 1 0
Height
3030 3036 3042 3047 3052 3057 3061 3065 3069 3072 3075 3077 3079 3080 3083 3084 3085 3087 3088 3089 3091 3090 3090 3091 3091 3092 3092 3092 3092 3091 3093 3091 3090 3091 3090 3089 3088 3087 3086 3084 3084 3085 3086 3084 3083 3082 3076 3069 3069 3071 3066 3063 3063 3061
3017 3024 3030 3035 3041 3046 3051 3055 3059 3062 3065 3067 3070 3072 3075 3076 3077 3077 3080 3081 3082 3084 3084 3084 3084 3084 3085 3085 3085 3085 3087 3087 3087 3087 3086 3083 3082 3080 3082 3082 3080 3080 3079 3080 3081 3076 3070 3069 3065 3061 3058 3056 3054 3052
3008 3014 3020 3025 3030 3035 3040 3044 3048 3052 3055 3057 3059 3062 3065 3067 3068 3070 3072 3073 3074 3075 3077 3076 3078 3078 3077 3078 3078 3080 3080 3079 3080 3081 3080 3078 3076 3076 3075 3073 3071 3071 3071 3069 3069 3066 3066 3063 3058 3056 3049 3049 3045 3042
2997 3003 3009 3014 3019 3023 3027 3032 3037 3041 3043 3046 3048 3051 3054 3056 3058 3062 3064 3065 3066 3067 3068 3068 3069 3071 3071 3071 3071 3073 3074 3074 3074 3074 3072 3069 3068 3066 3064 3064 3062 3066 3062 3059 3055 3056 3055 3055 3053 3045 3045 3042 3038 3034
2987 2993 2999 3005 3010 3014 3019 3022 3027 3031 3035 3038 3040 3043 3045 3047 3049 3051 3053 3055 3058 3064 3059 3058 3060 3063 3064 3064 3066 3067 3067 3067 3066 3064 3063 3061 3060 3062 3054 3051 3046 3053 3052 3050 3043 3050 3045 3043 3041 3037 3037 3031 3028 3025
2977 2984 2990 2995 3001 3005 3009 3013 3017 3022 3025 3029 3032 3035 3037 3039 3041 3045 3044 3047 3050 3052 3055 3050 3050 3052 3054 3056 3058 3059 3059 3060 3059 3056 3054 3051 3053 3056 3048 3040 3042 3044 3042 3041 3038 3036 3035 3033 3029 3027 3026 3023 3019 3016
2974 2978 2982 2988 2993 2997 3001 3004 3008 3012 3016 3020 3024 3027 3031 3033 3035 3036 3037 3040 3044 3047 3047 3045 3042 3040 3045 3046 3047 3049 3051 3051 3051 3047 3043 3044 3044 3046 3039 3033 3037 3036 3032 3031 3028 3027 3025 3021 3020 3017 3015 3013 3012 3009
2972 2976 2979 2983 2986 2990 2994 2998 3002 3006 3010 3013 3017 3021 3024 3027 3030 3030 3032 3033 3036 3039 3041 3040 3035 3039 3039 3040 3042 3042 3041 3042 3040 3039 3037 3037 3037 3035 3026 3026 3026 3024 3023 3021 3019 3017 3015 3014 3011 3009 3008 3007 3005 3003
2971 2974 2977 2981 2985 2988 2991 2994 2998 3002 3005 3008 3011 3015 3019 3021 3023 3024 3027 3027 3029 3034 3030 3028 3030 3034 3033 3033 3033 3033 3033 3032 3031 3028 3029 3030 3026 3020 3021 3021 3019 3019 3016 3012 3011 3010 3008 3008 3006 3005 3002 3000 2998 2995
2971 2974 2976 2980 2984 2986 2988 2991 2994 2998 3001 3003 3006 3010 3012 3015 3018 3021 3020 3022 3021 3021 3021 3021 3025 3027 3029 3027 3027 3028 3024 3025 3022 3020 3020 3017 3011 3015 3014 3012 3010 3007 3007 3007 3005 3005 3004 3004 3001 3000 2995 2992 2989 2986
2965 2970 2974 2977 2980 2983 2985 2988 2990 2994 2996 2998 3001 3004 3006 3008 3011 3014 3015 3015 3014 3013 3014 3014 3018 3018 3019 3020 3020 3022 3019 3017 3015 3014 3014 3008 3003 3006 3004 3001 2999 3000 3001 3002 3001 3000 2999 2998 2995 2992 2988 2985 2982 2979
2963 2967 2970 2972 2975 2979 2982 2984 2987 2989 2992 2995 2998 3000 3003 3005 3007 3008 3006 3007 3006 3009 3008 3008 3010 3010 3012 3014 3015 3015 3016 3014 3010 3008 3007 2999 3001 2999 2997 2995 2995 2995 2996 2996 2994 2993 2992 2992 2988 2983 2979 2976 2972 2968
2957 2960 2963 2966 2970 2974 2978 2982 2983 2986 2989 2991 2995 2997 2998 3000 2999 2999 2999 2999 3000 2999 3002 3005 3007 3008 3009 3011 3012 3012 3010 3009 3007 3004 2999 2996 2995 2994 2994 2993 2991 2991 2991 2990 2989 2987 2985 2984 2979 2974 2969 2965 2960 2954
2953 2956 2959 2961 2965 2969 2974 2978 2981 2984 2987 2989 2992 2993 2992 2992 2991 2992 2993 2996 2999 3000 3001 3003 3005 3006 3006 3008 3008 3008 3006 3003 3001 2999 2991 2991 2991 2990 2989 2989 2989 2987 2985 2984 2982 2979 2975 2971 2967 2963 2958 2953 2947 2942
2951 2954 2956 2958 2961 2965 2969 2974 2977 2981 2983 2985 2988 2987 2986 2987 2987 2988 2992 2994 2996 2998 2998 2999 3000 3002 3003 3005 3004 3002 3000 2995 2991 2988 2989 2989 2987 2986 2985 2984 2985 2982 2979 2977 2973 2967 2963 2959 2955 2949 2945 2939 2935 2930
2949 2951 2953 2956 2958 2960 2965 2969 2972 2975 2977 2980 2981 2982 2984 2984 2986 2987 2990 2992 2993 2994 2994 2995 2995 2996 2998 3000 2997 2994 2992 2988 2986 2986 2986 2985 2984 2981 2980 2979 2977 2973 2969 2965 2961 2956 2951 2946 2941 2935 2930 2927 2922 2918
2945 2949 2951 2954 2956 2957 2960 2964 2966 2969 2969 2971 2974 2977 2979 2982 2985 2986 2987 2988 2990 2991 2990 2990 2990 2990 2989 2989 2987 2986 2983 2984 2984 2981 2979 2978 2977 2974 2972 2968 2965 2960 2956 2952 2947 2942 2937 2932 2927 2922 2916 2913 2910 2906
2943 2947 2949 2951 2953 2954 2956 2959 2962 2964 2965 2965 2969 2972 2974 2980 2981 2982 2983 2985 2987 2986 2985 2986 2985 2982 2982 2980 2978 2980 2981 2980 2978 2974 2970 2969 2967 2965 2962 2958 2954 2949 2943 2937 2933 2927 2922 2919 2914 2909 2905 2901 2896 2893
2941 2943 2947 2949 2950 2952 2956 2955 2957 2961 2961 2963 2963 2968 2969 2973 2977 2980 2979 2979 2981 2982 2980 2980 2980 2975 2974 2976 2973 2975 2974 2971 2970 2966 2961 2960 2958 2955 2951 2946 2940 2935 2931 2927 2922 2917 2913 2909 2903 2899 2894 2889 2883 2880
2938 2941 2944 2944 2947 2950 2952 2955 2953 2954 2960 2961 2959 2962 2967 2969 2972 2974 2973 2973 2976 2976 2973 2970 2970 2971 2970 2970 2968 2967 2966 2963 2959 2954 2953 2951 2948 2944 2939 2934 2930 2926 2921 2917 2912 2907 2902 2897 2893 2888 2882 2877 2871 2867
2935 2938 2941 2943 2946 2948 2949 2949 2951 2953 2955 2955 2957 2957 2959 2963 2966 2968 2968 2967 2967 2965 2964 2965 2966 2966 2965 2963 2961 2958 2956 2953 2950 2947 2943 2939 2938 2935 2930 2926 2920 2915 2910 2906 2901 2896 2892 2886 2881 2875 2869 2865 2860 2855
2933 2935 2939 2941 2943 2944 2945 2945 2947 2949 2951 2950 2954 2955 2955 2957 2959 2960 2961 2961 2958 2958 2960 2961 2960 2958 2956 2954 2952 2950 2947 2943 2941 2938 2936 2932 2928 2924 2919 2915 2909 2904 2900 2896 2891 2884 2878 2874 2868 2862 2856 2851 2846 2841
2930 2933 2936 2938 2939 2940 2941 2941 2942 2944 2946 2946 2947 2949 2951 2952 2953 2956 2954 2952 2952 2954 2954 2953 2952 2950 2947 2947 2944 2941 2939 2936 2934 2931 2927 2923 2919 2914 2909 2905 2900 2894 2890 2886 2880 2872 2866 2861 2855 2849 2843 2837 2832 2828
2928 2930 2933 2934 2935 2935 2935 2937 2938 2939 2940 2942 2944 2946 2947 2947 2948 2948 2947 2946 2947 2948 2946 2945 2943 2942 2941 2939 2937 2935 2933 2929 2925 2922 2918 2914 2909 2905 2900 2895 2891 2886 2879 2872 2867 2860 2854 2848 2842 2836 2831 2826 2822 2817
2923 2926 2929 2928 2929 2930 2931 2932 2934 2935 2936 2937 2940 2941 2943 2944 2944 2942 2939 2940 2940 2939 2939 2938 2937 2936 2935 2933 2930 2928 2925 2921 2917 2913 2911 2904 2899 2895 2892 2887 2882 2876 2869 2861 2854 2848 2843 2837 2832 2827 2822 2817 2812 2808
2916 2917 2922 2924 2924 2927 2927 2928 2929 2931 2932 2934 2936 2937 2939 2940 2939 2936 2934 2936 2935 2934 2933 2933 2932 2930 2928 2925 2921 2919 2916 2912 2909 2905 2902 2897 2892 2886 2880 2874 2869 2865 2858 2851 2844 2838 2833 2828 2822 2818 2813 2809 2805 2801
2914 2915 2917 2919 2921 2922 2924 2926 2927 2928 2928 2930 2931 2933 2935 2934 2932 2932 2931 2930 2930 2929 2928 2927 2925 2922 2920 2917 2914 2911 2907 2903 2900 2898 2894 2890 2885 2879 2872 2865 2859 2854 2847 2841 2836 2829 2824 2820 2815 2811 2807 2803 2800 2796
2912 2915 2917 2918 2919 2920 2922 2923 2923 2924 2926 2927 2928 2929 2930 2929 2929 2927 2926 2925 2923 2922 2921 2919 2916 2914 2912 2909 2906 2903 2900 2898 2895 2891 2888 2884 2879 2873 2866 2860 2853 2847 2841 2835 2829 2824 2819 2815 2811 2807 2803 2799 2796 2793
2913 2914 2915 2915 2916 2917 2918 2920 2921 2922 2923 2924 2925 2925 2925 2924 2923 2921 2920 2918 2917 2914 2912 2910 2907 2905 2903 2901 2898 2896 2893 2890 2886 2883 2880 2876 2872 2867 2859 2853 2848 2842 2836 2830 2826 2821 2817 2812 2808 2805 2801 2798 2795 2793
2909 2910 2911 2912 2913 2915 2917 2918 2919 2920 2921 2922 2921 2920 2919 2917 2915 2913 2911 2909 2907 2904 2902 2900 2899 2897 2896 2894 2893 2892 2888 2884 2881 2876 2870 2867 2862 2858 2853 2849 2844 2839 2834 2829 2825 2821 2817 2813 2810 2806 2803 2801 2799 2797
2910 2911 2911 2911 2912 2913 2915 2916 2917 2917 2917 2917 2916 2915 2912 2909 2907 2906 2904 2902 2899 2897 2895 2894 2892 2891 2890 2888 2887 2885 2883 2880 2876 2872 2866 2862 2857 2852 2849 2845 2841 2837 2833 2829 2825 2822 2818 2815 2812 2809 2807 2805 2803 2802
2908 2909 2910 2911 2912 2913 2913 2914 2914 2914 2914 2913 2911 2908 2906 2904 2903 2902 2899 2897 2895 2893 2892 2891 2889 2887 2885 2883 2880 2878 2875 2872 2868 2864 2860 2856 2852 2849 2845 2842 2839 2835 2832 2829 2826 2823 2820 2817 2814 2812 2810 2808 2806 2803
2908 2909 2910 2910 2910 2911 2912 2912 2911 2910 2908 2906 2905 2903 2902 2901 2899 2898 2896 2894 2893 2891 2889 2886 2884 2882 2879 2877 2874 2871 2868 2865 2861 2857 2853 2850 2847 2844 2842 2840 2837 2834 2832 2829 2827 2824 2821 2818 2816 2814 2811 2809 2806 2804